Clarksville, TN

10:53 PM CDT on May 27, 2017 (GMT -0500)
Outlaw

Weather History for KCKV - February, 2014

Change the Weather History Date:

Tuesday, February 11, 2014

  Actual Average Record
Temperature  
Mean Temperature 20 °F 38 °F  
Max Temperature 30 °F 48 °F 71 °F (1976)
Min Temperature 10 °F 28 °F 4 °F (1979)
Degree Days  
Heating Degree Days 45    
Month to date heating degree days 388  
Since 1 July heating degree days 3044  
Cooling Degree Days 0    
Month to date cooling degree days 0  
Year to date cooling degree days  
Moisture  
Dew Point 11 °F    
Average Humidity 66    
Maximum Humidity 81    
Minimum Humidity 50    
Precipitation  
Precipitation 0.00 in 0.15 in 1.17 in (1966)
Month to date precipitation 2.92 1.81  
Year to date precipitation 5.12  
Sea Level Pressure  
Sea Level Pressure 30.40 in    
Wind  
Wind Speed 9 mph (NNE)    
Max Wind Speed 15 mph    
Max Gust Speed 18 mph    
Visibility 10 miles    
Events      
T = Trace of Precipitation, MM = Missing Value Source: NWS Daily Summary

Daily Weather History Graph

Daily Weather History Graph

Search for Another Location

Airport or City:

Trip Planner

Search our weather history database for the weather conditions in past years. The results will help you decide how hot, cold, wet, or windy it might be!

Date:

Astronomy

Feb. 11, 2014 Rise Set
Actual Time 6:42 AM CST 5:26 PM CST
Civil Twilight 6:15 AM CST 5:52 PM CST
Nautical Twilight 5:45 AM CST 6:23 PM CST
Astronomical Twilight 5:14 AM CST 6:53 PM CST
Moon 2:48 PM CST (2/11) 4:16 AM CST (2/11)
Length of Visible Light 11h 37m
Length of Day
10h 44m
Waxing Gibbous, 91% of the Moon is Illuminated
Feb 11
Waxing Gibbous
Feb 14
Full
Feb 22
Last Quarter
Mar 1
New
Mar 8
First Quarter

Hourly Weather History & Observations

Time (CST) Temp. Windchill Dew Point Humidity Pressure Visibility Wind Dir Wind Speed Gust Speed Precip Events Conditions
12:52 AM 12.9 °F -0.9 °F 6.1 °F 74% 30.39 in 10.0 mi NNE 11.5 mph - N/A   Clear
1:52 AM 12.9 °F 0.7 °F 6.1 °F 74% 30.41 in 10.0 mi North 9.2 mph - N/A   Clear
2:52 AM 12.0 °F -1.3 °F 5.0 °F 73% 30.43 in 10.0 mi North 10.4 mph - N/A   Clear
3:52 AM 12.0 °F -1.3 °F 5.0 °F 73% 30.43 in 10.0 mi North 10.4 mph - N/A   Clear
4:52 AM 10.0 °F -3.7 °F 3.0 °F 73% 30.42 in 10.0 mi NNE 10.4 mph - N/A   Clear
5:52 AM 10.0 °F -3.7 °F 3.9 °F 76% 30.44 in 10.0 mi NNE 10.4 mph - N/A   Clear
6:52 AM 10.9 °F -1.8 °F 3.9 °F 73% 30.46 in 10.0 mi North 9.2 mph - N/A   Clear
7:52 AM 12.9 °F -0.9 °F 5.0 °F 71% 30.47 in 10.0 mi North 11.5 mph - N/A   Clear
8:52 AM 14.0 °F 1.2 °F 6.1 °F 71% 30.48 in 9.0 mi North 10.4 mph - N/A   Clear
9:52 AM 18.0 °F 6.1 °F 9.0 °F 68% 30.46 in 9.0 mi North 10.4 mph 18.4 mph N/A   Clear
10:52 AM 21.0 °F 11.4 °F 10.9 °F 65% 30.46 in 10.0 mi NNE 8.1 mph - N/A   Clear
11:52 AM 25.0 °F 16.3 °F 10.9 °F 55% 30.43 in 10.0 mi NNE 8.1 mph - N/A   Clear
12:52 PM 26.1 °F 18.4 °F 12.0 °F 55% 30.41 in 10.0 mi NNW 6.9 mph - N/A   Clear
1:52 PM 28.9 °F 21.9 °F 12.9 °F 51% 30.38 in 10.0 mi NNE 6.9 mph - N/A   Clear
2:52 PM 30.0 °F 20.5 °F 17.1 °F 59% 30.38 in 10.0 mi North 11.5 mph - N/A   Clear
3:52 PM 28.0 °F 19.3 °F 17.1 °F 63% 30.37 in 10.0 mi NNE 9.2 mph - N/A   Clear
4:52 PM 26.1 °F 16.2 °F 17.1 °F 69% 30.36 in 10.0 mi NNE 10.4 mph - N/A   Clear
5:52 PM 24.1 °F 13.7 °F 17.1 °F 75% 30.35 in 9.0 mi North 10.4 mph - N/A   Clear
6:52 PM 23.0 °F 14.7 °F 17.1 °F 78% 30.36 in 10.0 mi North 6.9 mph - N/A   Clear
7:52 PM 21.9 °F 12.5 °F 16.0 °F 78% 30.35 in 9.0 mi NNE 8.1 mph - N/A   Clear
8:52 PM 21.9 °F 13.4 °F 16.0 °F 78% 30.34 in 9.0 mi NNE 6.9 mph - N/A   Clear
9:52 PM 21.0 °F 14.6 °F 16.0 °F 81% 30.34 in 8.0 mi NNE 4.6 mph - N/A   Clear
10:52 PM 21.0 °F 16.2 °F 15.1 °F 78% 30.33 in 8.0 mi ENE 3.5 mph - N/A   Clear
11:52 PM 21.0 °F 14.6 °F 14.0 °F 74% 30.30 in 8.0 mi NNE 4.6 mph - N/A   Clear